Regional Weather Roundup
Issued by NWS

Home | Current Version | Previous Version | Graphics & Text | Print | Product List | Glossary Off
Versions: 1 2 3 4 5 6 7 8 9 10 11 12 13 14 15 16 17 18 19 20 21 22 23 24 25 26 27 28 29 30 31 32 33 34 35 36 37 38 39 40 41 42 43 44 45 46 47 48 49 50

032
ASUS43 KTOP 230159
RWRKS

WEATHER ROUNDUP FOR KANSAS
NATIONAL WEATHER SERVICE GOODLAND KS
900 PM CDT SAT APR 22 2017

NOTE:  "FAIR" INDICATES FEW OR NO CLOUDS BELOW 12,000 FEET WITH NO
SIGNIFICANT WEATHER AND/OR OBSTRUCTIONS TO VISIBILITY.

KSZ001>006-013>018-027>032-041>047-230300-
NORTHWEST KANSAS

CITY           SKY/WX    TMP DP  RH WIND       PRES   REMARKS
GOODLAND       CLEAR     47  35  63 SE5       30.24R
HAYS           CLEAR     53  33  46 N7        30.23R
HILL CITY      CLEAR     50  31  48 SE3       30.23R
RUSSELL        CLEAR     53  32  44 N7        30.20R
$$

KSZ061>065-074>080-084>089-230300-
SOUTHWEST KANSAS

CITY           SKY/WX    TMP DP  RH WIND       PRES   REMARKS
DODGE CITY     CLEAR     48  33  56 N5        30.23S
ELKHART          N/A     48  32  54 NE2         N/A
GARDEN CITY    CLEAR     49  33  54 N6        30.24S
GREAT BEND     CLEAR     49  39  68 NW5       30.22R
LIBERAL        CLEAR     52  28  40 NE6       30.26S
$$

KSZ066>073-081>083-090>101-230300-
SOUTHEAST KANSAS

CITY           SKY/WX    TMP DP  RH WIND       PRES   REMARKS
CHANUTE        CLOUDY    53  42  66 N6        30.12R
COFFEYVILLE    CLOUDY    52  46  80 CALM      30.12R
HUTCHINSON     CLEAR     53  36  52 N5        30.18R
MEDICINE LODGE   N/A     51  36  56 N5        30.20R
NEWTON         CLEAR     49  41  74 N9        30.18R
PARSONS        CLOUDY    50  47  89 CALM      30.13R
WICHITA INTL   CLEAR     55  38  52 N7        30.16R
WICHITA JABRA  CLEAR     51  39  63 N7        30.16R
WINFIELD       CLOUDY    53  45  74 NW6       30.16R
$$

KSZ007>012-019>026-033>040-048>060-102>105-230300-
NORTHEAST KANSAS

CITY           SKY/WX    TMP DP  RH WIND       PRES   REMARKS
CONCORDIA      CLEAR     55  31  39 CALM      30.19S
EMPORIA        CLEAR     53  34  48 N8        30.15R
LAWRENCE       PTCLDY    54  34  46 N9        30.16R
MANHATTAN      CLEAR     52  32  46 N3        30.17R
OLATHE IND     PTCLDY    55  31  39 N10       30.15R
OLATHE EXE     PTCLDY    56  31  38 N7        30.14R
SALINA         CLEAR     54  39  57 N6        30.19R
TOPEKA BILLARD CLEAR     56  36  47 NE6       30.16R
TOPEKA FORBES  CLEAR     57  32  38 NE5       30.16R
$$




USA.gov is the U.S. government's official web portal to all federal, state and local government web resources and services.